Location: Yellowknife
(62.4500°N, 114.3500°W)
Time: 14:39:07
(UTC-06:00)

Amateur Radio Satellites - All Passes

Search period start: 01 October 2016 14:09
Search period end: 02 October 2016 14:09
Location: Yellowknife, 62.4500°N, 114.3500°W

Satellite Date Start Highest point End Downlink Frequencies (MHz)
Time Altitude Azimuth
Gurwin Techsat 1B 01 Oct 14:11:07 14:16:27 88° 70° (ENE) 14:21:50 435.225
NOAA 18 01 Oct 14:13:36 14:15:37 12° 5° (N) 14:17:39 137.9125
50 SAT 01 Oct 14:15:17 14:19:00 85° 289° (WNW) 14:22:40 437.505
DUCHIFAT 1 01 Oct 14:18:11 14:18:50 10° 282° (WNW) 14:19:29 145.980
PCSat 01 Oct 14:19:05 14:22:56 20° 248° (WSW) 14:26:47 145.827
Oscar 19 01 Oct 14:20:25 14:25:31 53° 259° (WSW) 14:30:38 437.125/150
DX 1 01 Oct 14:24:56 14:29:19 75° 107° (ESE) 14:33:40 434.975-435.025
FUNcube-1 01 Oct 14:28:48 14:29:27 10° 329° (NNW) 14:30:06 145.935
TISAT 1 01 Oct 14:31:39 14:35:18 28° 93° (E) 14:38:55 437.305
CUTE-I 01 Oct 14:37:40 14:39:33 12° 14° (NNE) 14:41:26 437.470
Cubesat XI-IV 01 Oct 14:38:49 14:40:43 12° 14° (NNE) 14:42:38 437.490
CUBEBUG 1 01 Oct 14:40:37 14:44:53 53° 297° (WNW) 14:49:06 437.445
HO-68 01 Oct 14:41:52 14:46:54 21° 351° (N) 14:51:56 435.675
O/OREOS (USA 219) 01 Oct 14:44:31 14:48:57 43° 33° (NNE) 14:53:23 437.305
VELOX 1 01 Oct 14:47:06 14:51:28 58° 296° (WNW) 14:55:48 145.980
YUBILEINY 01 Oct 14:47:28 14:56:12 78° 260° (W) 15:04:53 435.215
AUBIESAT-1 01 Oct 14:54:45 14:58:05 64° 114° (ESE) 15:01:22 437.475
HUMSAT D 01 Oct 14:56:18 14:58:27 14° 321° (NW) 15:00:37 437.325/437.525
Cosmos 2491 01 Oct 14:58:01 15:06:20 49° 87° (E) 15:14:41 435.465 / 435.565
Cosmos 2504 01 Oct 15:00:23 15:07:43 72° 70° (ENE) 15:15:29 435.465 / 435.565
SPROUT 01 Oct 15:01:51 15:06:05 62° 294° (WNW) 15:10:18 437.525
ESTCUBE 1 01 Oct 15:05:44 15:09:45 31° 307° (NW) 15:13:46 437.505/2401.250
SO-50 01 Oct 15:05:58 15:08:40 15° 117° (ESE) 15:11:21 436.795
JAS-2 01 Oct 15:12:17 15:16:33 16° 292° (WNW) 15:21:00 435.910
GONETS M04 01 Oct 15:12:54 15:19:16 21° 1° (N) 15:25:36
ITUPSAT 1 01 Oct 15:13:31 15:17:10 21° 87° (E) 15:20:50 437.325
HORYU 2 01 Oct 15:15:12 15:18:09 18° 40° (NE) 15:21:05 437.375
ITAMSAT 1 01 Oct 15:22:14 15:27:26 79° 251° (WSW) 15:32:42 435.822/435.867
BRITE-PL 01 Oct 15:22:37 15:26:16 19° 39° (NE) 15:29:47 437.365/2234.400
SWISSCUBE 01 Oct 15:24:07 15:28:11 26° 91° (E) 15:32:13 437.505
UKube-1 01 Oct 15:24:26 15:28:39 52° 298° (WNW) 15:32:51 .
M-CUBED/EXP-1 PRIME 01 Oct 15:36:00 15:39:14 49° 305° (NW) 15:42:25 437.505
BEESAT 01 Oct 15:36:35 15:40:47 29° 93° (E) 15:44:58 436.000
AIST 1 01 Oct 15:37:47 15:41:55 42° 64° (ENE) 15:46:00
AISAT 01 Oct 15:40:36 15:44:22 28° 309° (NW) 15:48:07 437.250
NOAA 15 01 Oct 15:44:38 15:48:13 19° 33° (NNE) 15:51:48 137.62
50 SAT 01 Oct 15:49:23 15:52:02 19° 310° (NW) 15:54:42 437.505
AO-7 01 Oct 15:49:54 15:58:15 78° 247° (WSW) 16:06:37 29.400- 29.500
NOAA 18 01 Oct 15:50:53 15:54:30 18° 29° (NNE) 15:58:06 137.9125
Gurwin Techsat 1B 01 Oct 15:52:40 15:57:06 26° 271° (W) 16:01:33 435.225
DX 1 01 Oct 16:01:29 16:05:13 28° 309° (NW) 16:08:56 434.975-435.025
Cosmos 2499 01 Oct 16:03:11 16:07:48 17° 15° (NNE) 16:12:35 435.465 / 435.565
Oscar 19 01 Oct 16:03:17 16:06:04 14° 281° (W) 16:08:51 437.125/150
TISAT 1 01 Oct 16:07:08 16:11:17 62° 294° (WNW) 16:15:25 437.305
CUTE-I 01 Oct 16:14:00 16:17:57 22° 38° (NE) 16:21:55 437.470
Cubesat XI-IV 01 Oct 16:15:12 16:19:09 22° 38° (NE) 16:23:08 437.490
CUBEBUG 1 01 Oct 16:17:38 16:20:24 17° 319° (NW) 16:23:09 437.445
KKS-1 01 Oct 16:21:58 16:24:14 14° 82° (E) 16:26:29 437.445
O/OREOS (USA 219) 01 Oct 16:24:02 16:28:38 64° 236° (WSW) 16:33:12 437.305
VELOX 1 01 Oct 16:24:13 16:27:14 18° 318° (NW) 16:30:14 145.980
MOZHAYETS 4 01 Oct 16:26:07 16:29:44 22° 87° (E) 16:33:20
HO-68 01 Oct 16:27:17 16:32:35 23° 17° (NNE) 16:37:53 435.675
GOMX 1 01 Oct 16:28:17 16:32:01 21° 46° (NE) 16:35:35 467.674
AUBIESAT-1 01 Oct 16:29:35 16:32:23 25° 315° (NW) 16:35:08 437.475
DOVE 4 01 Oct 16:30:15 16:32:30 14° 37° (NE) 16:34:42 437.250
SPROUT 01 Oct 16:38:28 16:41:22 18° 316° (NW) 16:44:17 437.525
ESTCUBE 1 01 Oct 16:43:37 16:45:25 12° 329° (NNW) 16:47:14 437.505/2401.250
SO-50 01 Oct 16:43:38 16:48:14 46° 138° (SE) 16:52:45 436.795
STARS 01 Oct 16:44:28 16:46:07 12° 80° (E) 16:47:46 437.465
YUBILEINY 01 Oct 16:44:44 16:51:52 30° 286° (WNW) 16:58:57 435.215
HORYU 2 01 Oct 16:49:38 16:53:56 55° 63° (ENE) 16:58:18 437.375
ITUPSAT 1 01 Oct 16:50:53 16:55:45 83° 110° (ESE) 17:00:36 437.325
Cosmos 2504 01 Oct 16:54:04 17:00:49 41° 274° (W) 17:07:55 435.465 / 435.565
Cosmos 2491 01 Oct 16:54:11 17:03:00 69° 293° (WNW) 17:11:53 435.465 / 435.565
BRITE-PL 01 Oct 16:58:29 17:03:49 48° 60° (ENE) 17:08:52 437.365/2234.400
UKube-1 01 Oct 17:01:12 17:03:57 17° 320° (NW) 17:06:41 .
SWISSCUBE 01 Oct 17:01:41 17:06:31 79° 293° (WNW) 17:11:21 437.505
ITAMSAT 1 01 Oct 17:03:48 17:07:45 22° 274° (W) 17:11:44 435.822/435.867
LilacSat-2 01 Oct 17:04:33 17:07:28 21° 52° (NE) 17:10:25 437.200
CUSAT 1 01 Oct 17:05:53 17:08:50 13° 60° (ENE) 17:11:50 437.405
M-CUBED/EXP-1 PRIME 01 Oct 17:11:20 17:13:11 14° 326° (NNW) 17:14:59 437.505
GONETS M04 01 Oct 17:12:18 17:19:47 29° 34° (NNE) 17:27:14
CINEMA 3 01 Oct 17:12:59 17:13:54 11° 33° (NNE) 17:14:47 145.822/145.860
BEESAT 01 Oct 17:14:13 17:19:01 71° 294° (WNW) 17:23:49 436.000
AIST 1 01 Oct 17:15:31 17:19:34 40° 266° (W) 17:23:35
AISAT 01 Oct 17:18:26 17:19:39 11° 331° (NNW) 17:20:51 437.250
NOAA 15 01 Oct 17:21:56 17:26:59 46° 56° (NE) 17:32:04 137.62
NOAA 18 01 Oct 17:28:57 17:34:03 42° 53° (NE) 17:39:10 137.9125
DX 1 01 Oct 17:39:03 17:40:15 11° 331° (NNW) 17:41:25 434.975-435.025
TISAT 1 01 Oct 17:43:28 17:46:17 18° 316° (NW) 17:49:06 437.305
AO-7 01 Oct 17:45:19 17:52:23 30° 272° (W) 17:59:29 29.400- 29.500
SEEDS 01 Oct 17:46:28 17:47:54 12° 34° (NE) 17:49:21 437.485
CUTE 1.7 + AOD 2 01 Oct 17:51:51 17:54:08 14° 39° (NE) 17:56:25 437.475
CUTE-I 01 Oct 17:51:58 17:57:11 57° 60° (ENE) 18:02:25 437.470
Cubesat XI-IV 01 Oct 17:53:12 17:58:25 58° 61° (ENE) 18:03:40 437.490
CANX-2 01 Oct 17:53:39 17:56:10 15° 41° (NE) 17:58:42 2200.000
CUBESAT XI-V 01 Oct 17:57:11 18:01:03 24° 89° (E) 18:04:53 437.345
KKS-1 01 Oct 17:57:22 18:01:47 58° 104° (ESE) 18:06:09 437.445
Cosmos 2499 01 Oct 17:57:23 18:03:48 31° 45° (NE) 18:10:35 435.465 / 435.565
MOZHAYETS 4 01 Oct 18:02:52 18:07:34 89° 108° (ESE) 18:12:14
O/OREOS (USA 219) 01 Oct 18:04:21 18:07:17 17° 258° (WSW) 18:10:12 437.305
GOMX 1 01 Oct 18:04:25 18:09:30 66° 67° (ENE) 18:14:17 467.674
DOVE 4 01 Oct 18:04:56 18:09:17 39° 59° (ENE) 18:13:26 437.250
RS-15 01 Oct 18:10:01 18:14:56 14° 84° (E) 18:19:53 29.354- 29.394
HO-68 01 Oct 18:12:16 18:18:47 40° 43° (NE) 18:25:19 435.675
STARS 01 Oct 18:19:15 18:23:32 51° 102° (ESE) 18:27:48 437.465
SO-50 01 Oct 18:23:47 18:28:36 83° 340° (NNW) 18:33:18 436.795
HORYU 2 01 Oct 18:26:42 18:30:45 34° 264° (W) 18:34:50 437.375
ITUPSAT 1 01 Oct 18:29:06 18:33:14 29° 311° (NW) 18:37:22 437.325
BRITE-PL 01 Oct 18:36:52 18:42:20 52° 260° (W) 18:47:32 437.365/2234.400
LilacSat-2 01 Oct 18:37:36 18:41:24 84° 251° (WSW) 18:45:14 437.200
SWISSCUBE 01 Oct 18:39:56 18:43:48 25° 314° (NW) 18:47:39 437.505
CUSAT 1 01 Oct 18:42:06 18:48:38 35° 83° (E) 18:55:40 437.405
COMPASS 1 01 Oct 18:43:21 18:46:11 18° 45° (NE) 18:49:01 437.405
CINEMA 3 01 Oct 18:46:14 18:49:57 30° 56° (NE) 18:53:39 145.822/145.860
Cosmos 2504 01 Oct 18:49:04 18:52:15 13° 299° (WNW) 18:55:29 435.465 / 435.565
BEESAT 01 Oct 18:52:29 18:56:13 23° 316° (NW) 18:59:55 436.000
Cosmos 2491 01 Oct 18:53:57 19:01:40 32° 321° (NW) 19:09:26 435.465 / 435.565
NOAA 15 01 Oct 19:01:34 19:06:47 54° 258° (WSW) 19:12:03 137.62
STRAND 1 01 Oct 19:07:12 19:08:18 11° 74° (ENE) 19:09:24 437.568
NOAA 18 01 Oct 19:09:12 19:14:37 63° 255° (WSW) 19:20:05 137.9125
GONETS M04 01 Oct 19:09:58 19:18:45 61° 63° (ENE) 19:27:27
FUNcube-1 01 Oct 19:10:35 19:12:47 14° 39° (NE) 19:15:02 145.935
DANDE 01 Oct 19:12:41 19:18:09 27° 77° (ENE) 19:24:29 436.750
SEEDS 01 Oct 19:18:44 19:22:32 33° 56° (ENE) 19:26:22 437.485
CUTE 1.7 + AOD 2 01 Oct 19:25:02 19:29:05 43° 61° (ENE) 19:33:11 437.475
CUBEBUG 2 01 Oct 19:25:02 19:28:27 25° 52° (NE) 19:31:53 437.445
CANX-2 01 Oct 19:27:06 19:31:13 49° 63° (ENE) 19:35:23 2200.000
AAUSAT CUBESAT 2 01 Oct 19:29:02 19:32:34 27° 53° (NE) 19:36:07 437.432
CUTE-I 01 Oct 19:32:27 19:37:29 42° 263° (W) 19:42:33 437.470
Cubesat XI-IV 01 Oct 19:33:44 19:38:45 41° 263° (W) 19:43:49 437.490
UWE-3 01 Oct 19:34:07 19:37:25 23° 50° (NE) 19:40:44 435.000/436.395/437.385
KKS-1 01 Oct 19:34:12 19:38:13 35° 305° (NW) 19:42:15 437.445
CUBESAT XI-V 01 Oct 19:34:16 19:39:01 82° 291° (WNW) 19:43:43 437.345
HUMSAT D 01 Oct 19:39:52 19:39:55 10° 31° (NNE) 19:39:59 437.325/437.525
MOZHAYETS 4 01 Oct 19:40:28 19:44:19 26° 310° (NW) 19:48:10
DOVE 4 01 Oct 19:42:22 19:46:59 51° 259° (W) 19:51:22 437.250
GOMX 1 01 Oct 19:43:19 19:47:56 33° 267° (W) 19:52:19 467.674
Oscar 11 01 Oct 19:43:20 19:46:39 22° 48° (NE) 19:50:00 145.826/435.025
Cosmos 2499 01 Oct 19:50:47 19:58:13 76° 71° (ENE) 20:06:13 435.465 / 435.565
ZACube-1 01 Oct 19:53:33 19:56:52 24° 50° (NE) 20:00:15 437.345
STARS 01 Oct 19:55:48 19:59:51 38° 303° (WNW) 20:03:54 437.465
HO-68 01 Oct 19:58:52 20:06:04 88° 248° (WSW) 20:13:18 435.675
SO-50 01 Oct 20:04:39 20:09:24 68° 5° (N) 20:14:01 436.795
ITUPSAT 1 01 Oct 20:07:48 20:09:48 13° 333° (NNW) 20:11:49 437.325
DELFI C3 01 Oct 20:12:42 20:15:28 18° 47° (NE) 20:18:14 145.870
RS-15 01 Oct 20:12:57 20:23:27 40° 113° (ESE) 20:34:18 29.354- 29.394
LilacSat-2 01 Oct 20:13:54 20:16:20 16° 274° (W) 20:18:47 437.200
COMPASS 1 01 Oct 20:16:54 20:21:04 61° 66° (ENE) 20:25:16 437.405
SWISSCUBE 01 Oct 20:18:49 20:20:12 11° 337° (NNW) 20:21:36 437.505
BRITE-PL 01 Oct 20:18:55 20:21:59 15° 282° (WNW) 20:24:58 437.365/2234.400
CUSAT 1 01 Oct 20:22:32 20:29:59 89° 108° (ESE) 20:38:07 437.405
CINEMA 3 01 Oct 20:22:43 20:26:58 62° 257° (WSW) 20:31:08 145.822/145.860
BEESAT 01 Oct 20:31:33 20:32:33 11° 339° (NNW) 20:33:33 436.000
STRAND 1 01 Oct 20:44:04 20:48:57 41° 97° (E) 20:53:49 437.568
FUNcube-1 01 Oct 20:44:13 20:48:10 44° 61° (ENE) 20:52:12 145.935
NOAA 15 01 Oct 20:44:49 20:47:48 15° 281° (W) 20:50:48 137.62
AO-85 01 Oct 20:47:00 20:49:46 15° 117° (ESE) 20:52:25 145.980
NOAA 18 01 Oct 20:52:48 20:56:25 18° 277° (W) 21:00:02 137.9125
DANDE 01 Oct 20:53:15 20:59:47 76° 102° (ESE) 21:07:52 436.750
SEEDS 01 Oct 20:53:54 20:58:06 58° 258° (WSW) 21:02:20 437.485
Cosmos 2491 01 Oct 20:55:38 21:02:03 21° 353° (N) 21:08:29 435.465 / 435.565
CUBEBUG 2 01 Oct 21:00:36 21:04:46 78° 254° (WSW) 21:08:58 437.445
CUTE 1.7 + AOD 2 01 Oct 21:00:57 21:05:00 41° 262° (W) 21:09:07 437.475
CUBEBUG 1 01 Oct 21:03:01 21:03:58 11° 29° (NNE) 21:04:54 437.445
CANX-2 01 Oct 21:03:16 21:07:15 37° 264° (W) 21:11:16 2200.000
AAUSAT CUBESAT 2 01 Oct 21:03:34 21:07:46 74° 256° (WSW) 21:12:00 437.432
GONETS M04 01 Oct 21:07:09 21:15:43 56° 269° (W) 21:24:10
UWE-3 01 Oct 21:09:19 21:13:28 88° 252° (WSW) 21:17:42 435.000/436.395/437.385
VELOX 1 01 Oct 21:10:17 21:11:24 11° 28° (NNE) 21:12:30 145.980
HUMSAT D 01 Oct 21:10:51 21:14:22 27° 53° (NE) 21:17:57 437.325/437.525
KKS-1 01 Oct 21:11:44 21:13:45 13° 327° (NNW) 21:15:46 437.445
CUBESAT XI-V 01 Oct 21:12:06 21:15:53 24° 312° (NW) 21:19:39 437.345
CUTE-I 01 Oct 21:17:34 21:19:03 11° 286° (WNW) 21:20:35 437.470
Oscar 11 01 Oct 21:17:57 21:22:17 79° 69° (ENE) 21:26:39 145.826/435.025
Cubesat XI-IV 01 Oct 21:18:57 21:20:23 11° 286° (WNW) 21:21:48 437.490
MOZHAYETS 4 01 Oct 21:18:59 21:20:10 11° 333° (NNW) 21:21:21
DOVE 4 01 Oct 21:23:49 21:25:44 12° 281° (W) 21:27:36 437.250
ESTCUBE 1 01 Oct 21:27:34 21:30:29 17° 40° (NE) 21:33:25 437.505/2401.250
ZACube-1 01 Oct 21:28:37 21:32:46 87° 253° (WSW) 21:37:01 437.345
STARS 01 Oct 21:33:05 21:35:14 14° 325° (NW) 21:37:23 437.465
Cosmos 2499 01 Oct 21:44:13 21:50:59 40° 275° (W) 21:58:11 435.465 / 435.565
SO-50 01 Oct 21:45:21 21:50:04 78° 207° (SSW) 21:54:39 436.795
UKube-1 01 Oct 21:45:37 21:46:54 11° 30° (NNE) 21:48:10 .
DELFI C3 01 Oct 21:45:42 21:49:43 68° 67° (ENE) 21:53:45 145.870
HO-68 01 Oct 21:48:29 21:54:45 32° 270° (W) 22:01:02 435.675
M-CUBED/EXP-1 PRIME 01 Oct 21:50:51 21:52:56 15° 35° (NE) 21:54:58 437.505
COMPASS 1 01 Oct 21:53:17 21:56:57 28° 267° (W) 22:00:40 437.405
50 SAT 01 Oct 21:58:11 21:59:33 12° 40° (NE) 22:00:55 437.505
AISAT 01 Oct 22:00:52 22:03:49 18° 41° (NE) 22:06:46 437.250
CINEMA 3 01 Oct 22:02:52 22:05:01 13° 278° (W) 22:07:08 145.822/145.860
CUSAT 1 01 Oct 22:05:48 22:12:56 41° 312° (NW) 22:20:28 437.405
PRISM 01 Oct 22:12:38 22:16:23 31° 95° (E) 22:20:05 437.425
FUNcube-1 01 Oct 22:20:39 22:24:33 38° 263° (W) 22:28:31 145.935
DX 1 01 Oct 22:20:45 22:23:38 17° 41° (NE) 22:26:32 434.975-435.025
RS-15 01 Oct 22:22:33 22:34:29 77° 142° (SE) 22:46:50 29.354- 29.394
STRAND 1 01 Oct 22:23:19 22:28:22 56° 299° (WNW) 22:33:26 437.568
AO-85 01 Oct 22:24:39 22:29:22 45° 138° (SE) 22:33:45 145.980
UNISAT 6 01 Oct 22:25:00 22:26:52 12° 80° (E) 22:28:45 437.425
ISS 01 Oct 22:28:38 22:30:04 12° 172° (S) 22:31:33 145.825
SEEDS 01 Oct 22:32:42 22:34:44 13° 279° (W) 22:36:47 437.485
CUBEBUG 1 01 Oct 22:35:20 22:39:03 27° 52° (NE) 22:42:46 437.445
DANDE 01 Oct 22:36:44 22:43:17 45° 309° (NW) 22:51:05 436.750
CUBEBUG 2 01 Oct 22:39:28 22:42:09 17° 275° (W) 22:44:51 437.445
AAUSAT CUBESAT 2 01 Oct 22:41:20 22:43:59 16° 276° (W) 22:46:41 437.432
AUBIESAT-1 01 Oct 22:42:41 22:45:38 24° 45° (NE) 22:48:29 437.475
VELOX 1 01 Oct 22:42:54 22:46:39 27° 51° (NE) 22:50:23 145.980
HUMSAT D 01 Oct 22:45:36 22:49:43 71° 254° (WSW) 22:53:56 437.325/437.525
UWE-3 01 Oct 22:47:38 22:50:36 19° 274° (W) 22:53:36 435.000/436.395/437.385
CUBESAT XI-V 01 Oct 22:51:02 22:51:53 10° 335° (NNW) 22:52:44 437.345
SPROUT 01 Oct 22:55:17 22:58:34 22° 48° (NE) 23:01:52 437.525
Oscar 11 01 Oct 22:55:27 22:58:57 23° 271° (W) 23:02:28 145.826/435.025
Cosmos 2491 01 Oct 22:55:40 23:02:48 26° 26° (NNE) 23:09:53 435.465 / 435.565
ANTELSAT 01 Oct 22:59:16 23:02:38 21° 88° (E) 23:06:01 437.575/2403.000
ESTCUBE 1 01 Oct 23:02:04 23:06:29 51° 62° (ENE) 23:10:55 437.505/2401.250
GONETS M04 01 Oct 23:04:42 23:10:40 21° 296° (WNW) 23:16:38
ZACube-1 01 Oct 23:06:47 23:09:45 19° 274° (W) 23:12:44 437.345
UKube-1 01 Oct 23:18:03 23:21:47 29° 52° (NE) 23:25:32 .
TIGRISAT 01 Oct 23:18:19 23:22:05 27° 92° (E) 23:25:52 435.000
ITUPSAT 1 01 Oct 23:20:32 23:21:44 11° 21° (NNE) 23:22:55 437.325
DELFI C3 01 Oct 23:21:36 23:24:57 24° 269° (W) 23:28:19 145.870
M-CUBED/EXP-1 PRIME 01 Oct 23:23:18 23:26:55 49° 55° (NE) 23:30:19 437.505
SO-50 01 Oct 23:26:04 23:30:06 29° 231° (SW) 23:34:03 436.795
50 SAT 01 Oct 23:28:45 23:32:13 41° 62° (ENE) 23:35:43 437.505
SWISSCUBE 01 Oct 23:30:15 23:32:02 12° 25° (NNE) 23:33:49 437.505
AISAT 01 Oct 23:35:13 23:39:34 56° 63° (ENE) 23:43:56 437.250
Cosmos 2499 01 Oct 23:39:04 23:42:06 13° 300° (WNW) 23:45:11 435.465 / 435.565
QB50P2 01 Oct 23:39:27 23:40:19 10° 79° (ENE) 23:41:09 145.880/145.840
POLYITAN 1 01 Oct 23:41:38 23:42:27 10° 79° (ENE) 23:43:17 437.675
BEESAT 01 Oct 23:42:21 23:44:22 13° 27° (NNE) 23:46:24 436.000
PRISM 01 Oct 23:47:51 23:51:57 55° 296° (WNW) 23:55:59 437.425
CUSAT 1 01 Oct 23:51:09 23:57:14 24° 338° (NNW) 00:03:24 437.405
DX 1 01 Oct 23:54:49 23:59:06 55° 63° (ENE) 00:03:24 434.975-435.025
TISAT 1 01 Oct 23:59:11 00:02:25 22° 48° (NE) 00:05:39 437.305
UNISAT 6 02 Oct 00:00:17 00:04:37 53° 101° (ESE) 00:09:01 437.425
STRAND 1 02 Oct 00:03:00 00:06:45 21° 321° (NW) 00:10:29 437.568
ISS 02 Oct 00:04:20 00:05:35 12° 192° (SSW) 00:06:50 145.825
AO-85 02 Oct 00:04:50 00:09:43 82° 340° (NNW) 00:14:11 145.980
CUBEBUG 1 02 Oct 00:10:36 00:15:01 78° 251° (WSW) 00:19:26 437.445
DUCHIFAT 1 02 Oct 00:11:35 00:14:10 16° 84° (E) 00:16:44 145.980
AUBIESAT-1 02 Oct 00:16:10 00:19:54 76° 246° (WSW) 00:23:24 437.475
VELOX 1 02 Oct 00:18:19 00:22:46 80° 251° (WSW) 00:27:16 145.980
QB50P1 02 Oct 00:18:34 00:21:38 19° 87° (E) 00:24:42 145.935-145.965
JAS-2 02 Oct 00:19:08 00:25:56 30° 83° (E) 00:32:33 435.910
DANDE 02 Oct 00:22:23 00:28:17 25° 336° (NNW) 00:34:50 436.750
HUMSAT D 02 Oct 00:23:41 00:26:10 15° 277° (W) 00:28:40 437.325/437.525
SPROUT 02 Oct 00:29:46 00:34:02 83° 72° (ENE) 00:38:20 437.525
POPSAT HIP 1 02 Oct 00:32:22 00:35:47 23° 90° (E) 00:39:12 437.405
RS-15 02 Oct 00:35:09 00:47:22 81° 353° (N) 00:59:52 29.354- 29.394
ANTELSAT 02 Oct 00:35:32 00:39:57 90° 287° (WNW) 00:44:27 437.575/2403.000
ESTCUBE 1 02 Oct 00:39:12 00:43:28 39° 263° (W) 00:47:46 437.505/2401.250
NANOSAT C BR1 02 Oct 00:45:20 00:48:59 28° 93° (E) 00:52:37 145.865
UKube-1 02 Oct 00:53:14 00:57:35 72° 254° (WSW) 01:01:56 .
Cosmos 2491 02 Oct 00:53:37 01:02:14 50° 56° (ENE) 01:10:46 435.465 / 435.565
ITUPSAT 1 02 Oct 00:54:22 00:58:08 23° 45° (NE) 01:01:55 437.325
TIGRISAT 02 Oct 00:54:49 00:59:11 70° 293° (WNW) 01:03:39 435.000
M-CUBED/EXP-1 PRIME 02 Oct 00:58:15 01:01:38 31° 254° (WSW) 01:04:50 437.505
50 SAT 02 Oct 01:02:24 01:05:48 35° 263° (W) 01:09:13 437.505
SWISSCUBE 02 Oct 01:04:30 01:08:31 27° 48° (NE) 01:12:33 437.505
AISAT 02 Oct 01:12:14 01:16:18 34° 264° (W) 01:20:22 437.250
QB50P2 02 Oct 01:13:05 01:17:12 47° 100° (E) 01:21:17 145.880/145.840
POLYITAN 1 02 Oct 01:15:15 01:19:21 47° 100° (E) 01:23:27 437.675
BEESAT 02 Oct 01:16:47 01:20:55 30° 50° (NE) 01:25:03 436.000
BEESAT 3 02 Oct 01:21:28 01:24:28 21° 126° (SE) 01:27:30 437.485
PRISM 02 Oct 01:23:53 01:26:33 17° 318° (NW) 01:29:10 437.425
BUGSAT 1 02 Oct 01:29:50 01:33:24 29° 94° (E) 01:36:57 437.445
DX 1 02 Oct 01:31:33 01:35:33 34° 264° (W) 01:39:33 434.975-435.025
TISAT 1 02 Oct 01:33:25 01:37:36 84° 72° (ENE) 01:41:49 437.305
CUSAT 1 02 Oct 01:36:39 01:42:18 20° 5° (N) 01:47:48 437.405
UNISAT 6 02 Oct 01:37:14 01:41:17 37° 302° (WNW) 01:45:24 437.425
STRAND 1 02 Oct 01:42:57 01:44:18 11° 345° (NNW) 01:45:39 437.568
AO-85 02 Oct 01:45:47 01:50:28 65° 3° (N) 01:54:46 145.980
DUCHIFAT 1 02 Oct 01:46:25 01:50:38 72° 105° (ESE) 01:54:50 145.980
CUBEBUG 1 02 Oct 01:49:01 01:52:03 18° 274° (W) 01:55:05 437.445
AUBIESAT-1 02 Oct 01:52:50 01:54:56 14° 264° (W) 01:56:59 437.475
QB50P1 02 Oct 01:53:47 01:58:03 88° 107° (ESE) 02:02:17 145.935-145.965
KKS-1 02 Oct 01:55:36 01:58:13 16° 38° (NE) 02:00:50 437.445
VELOX 1 02 Oct 01:56:49 01:59:58 19° 274° (W) 02:03:08 145.980
MOZHAYETS 4 02 Oct 02:02:57 02:06:19 20° 44° (NE) 02:09:42
JAS-2 02 Oct 02:04:07 02:12:05 80° 108° (ESE) 02:19:48 435.910
Cosmos 2504 02 Oct 02:05:45 02:08:03 12° 58° (ENE) 02:10:21 435.465 / 435.565
SPROUT 02 Oct 02:07:12 02:10:32 22° 271° (W) 02:13:52 437.525
YUBILEINY 02 Oct 02:07:13 02:14:23 30° 74° (ENE) 02:21:33 435.215
POPSAT HIP 1 02 Oct 02:07:49 02:12:04 76° 290° (WNW) 02:16:16 437.405
DANDE 02 Oct 02:08:30 02:14:10 21° 4° (N) 02:20:08 436.750
ANTELSAT 02 Oct 02:12:44 02:16:16 24° 310° (NW) 02:19:52 437.575/2403.000
Gurwin Techsat 1B 02 Oct 02:16:44 02:20:09 17° 81° (E) 02:23:34 435.225
STARS 02 Oct 02:16:49 02:19:04 14° 36° (NE) 02:21:20 437.465
Oscar 19 02 Oct 02:20:40 02:25:04 27° 90° (E) 02:29:24 437.125/150
NANOSAT C BR1 02 Oct 02:20:53 02:25:04 63° 295° (WNW) 02:29:14 145.865
BEESAT 2 02 Oct 02:25:51 02:29:28 33° 134° (SE) 02:33:06 435.950
ITUPSAT 1 02 Oct 02:30:37 02:35:24 74° 66° (ENE) 02:40:14 437.325
UKube-1 02 Oct 02:31:40 02:34:24 16° 275° (W) 02:37:11 .
TIGRISAT 02 Oct 02:32:07 02:35:19 20° 314° (NW) 02:38:34 435.000
SWISSCUBE 02 Oct 02:41:06 02:45:54 89° 244° (WSW) 02:50:45 437.505
RS-15 02 Oct 02:48:18 03:00:40 90° 22° (NNE) 03:13:05 29.354- 29.394
QB50P2 02 Oct 02:49:04 02:53:00 39° 301° (WNW) 02:56:56 145.880/145.840
Cosmos 2491 02 Oct 02:50:52 02:59:41 71° 263° (W) 03:08:26 435.465 / 435.565
POLYITAN 1 02 Oct 02:51:13 02:55:09 39° 301° (WNW) 02:59:05 437.675
BEESAT 02 Oct 02:53:34 02:58:22 80° 252° (WSW) 03:03:13 436.000
BEESAT 3 02 Oct 02:57:40 03:01:36 67° 148° (SSE) 03:05:34 437.485
BUGSAT 1 02 Oct 03:05:06 03:09:03 56° 296° (WNW) 03:13:01 437.445
TISAT 1 02 Oct 03:10:37 03:13:49 21° 271° (W) 03:17:02 437.305
UNISAT 6 02 Oct 03:15:00 03:17:01 13° 324° (NW) 03:19:04 437.425
CUSAT 1 02 Oct 03:20:27 03:27:10 28° 32° (NNE) 03:33:22 437.405
STRAND 1 02 Oct 03:20:53 03:21:30 10° 10° (N) 03:22:07 437.568
DUCHIFAT 1 02 Oct 03:22:30 03:26:04 28° 307° (NW) 03:29:39 145.980
ITAMSAT 1 02 Oct 03:24:23 03:27:56 18° 83° (E) 03:31:28 435.822/435.867
AO-85 02 Oct 03:26:35 03:31:08 83° 207° (SSW) 03:35:19 145.980
KKS-1 02 Oct 03:29:40 03:33:54 45° 60° (ENE) 03:38:10 437.445
QB50P1 02 Oct 03:30:03 03:33:26 24° 310° (NW) 03:36:49 145.935-145.965
PCSat 02 Oct 03:31:28 03:32:54 11° 102° (ESE) 03:34:20 145.827
CUBESAT XI-V 02 Oct 03:35:02 03:38:41 23° 46° (NE) 03:42:21 437.345
MOZHAYETS 4 02 Oct 03:38:15 03:42:49 65° 66° (ENE) 03:47:26
AO-7 02 Oct 03:39:16 03:45:04 20° 79° (ENE) 03:50:51 29.400- 29.500
POPSAT HIP 1 02 Oct 03:44:11 03:47:19 21° 313° (NW) 03:50:27 437.405
JAS-2 02 Oct 03:49:22 03:56:44 46° 310° (NW) 04:03:59 435.910
STARS 02 Oct 03:50:24 03:54:29 40° 58° (ENE) 03:58:35 437.465
AIST 2 02 Oct 03:52:06 03:54:56 18° 122° (ESE) 03:57:48 435.215
Cosmos 2504 02 Oct 03:52:49 03:59:17 38° 85° (E) 04:05:48 435.465 / 435.565
DANDE 02 Oct 03:53:06 03:59:54 28° 31° (NNE) 04:06:51 436.750
Gurwin Techsat 1B 02 Oct 03:55:55 04:01:14 62° 104° (ESE) 04:06:30 435.225
NANOSAT C BR1 02 Oct 03:57:17 04:00:10 18° 316° (NW) 04:03:02 145.865
Oscar 19 02 Oct 03:59:47 04:05:00 82° 293° (WNW) 04:10:10 437.125/150
YUBILEINY 02 Oct 04:01:19 04:10:04 79° 100° (E) 04:18:49 435.215
BEESAT 2 02 Oct 04:03:01 04:07:01 89° 334° (NNW) 04:11:05 435.950
ITUPSAT 1 02 Oct 04:09:37 04:13:44 28° 268° (W) 04:17:53 437.325
SWISSCUBE 02 Oct 04:20:38 04:24:23 22° 272° (W) 04:28:09 437.505
AIST 1 02 Oct 04:20:48 04:22:59 14° 78° (ENE) 04:25:11
QB50P2 02 Oct 04:25:55 04:27:52 13° 323° (NW) 04:29:50 145.880/145.840
POLYITAN 1 02 Oct 04:28:04 04:30:02 13° 323° (NW) 04:31:59 437.675
BEESAT 02 Oct 04:33:25 04:36:56 20° 274° (W) 04:40:29 436.000
BEESAT 3 02 Oct 04:35:25 04:39:22 64° 350° (N) 04:43:21 437.485
BUGSAT 1 02 Oct 04:41:17 04:43:46 16° 317° (NW) 04:46:14 437.445
Cosmos 2491 02 Oct 04:48:14 04:55:08 27° 289° (WNW) 05:02:01 435.465 / 435.565
STRAND 1 02 Oct 04:55:37 04:58:56 18° 33° (NNE) 05:02:15 437.568
DUCHIFAT 1 02 Oct 05:00:13 05:00:37 10° 329° (NNW) 05:01:01 145.980
RS-15 02 Oct 05:00:52 05:12:41 56° 234° (SW) 05:24:24 29.354- 29.394
CUSAT 1 02 Oct 05:03:06 05:10:59 56° 58° (ENE) 05:17:51 437.405
ITAMSAT 1 02 Oct 05:03:11 05:08:25 66° 105° (ESE) 05:13:38 435.822/435.867
KKS-1 02 Oct 05:06:20 05:10:34 42° 261° (W) 05:14:49 437.445
AO-85 02 Oct 05:07:20 05:11:09 29° 231° (SW) 05:14:43 145.980
PCSat 02 Oct 05:09:57 05:14:55 38° 125° (SE) 05:19:55 145.827
CUBESAT XI-V 02 Oct 05:10:46 05:15:29 74° 68° (ENE) 05:20:14 437.345
MOZHAYETS 4 02 Oct 05:16:18 05:20:23 30° 268° (W) 05:24:29
STARS 02 Oct 05:26:36 05:30:51 48° 259° (W) 05:35:07 437.465
AIST 2 02 Oct 05:28:40 05:32:45 58° 144° (SE) 05:36:52 435.215
AO-7 02 Oct 05:31:42 05:39:54 57° 104° (ESE) 05:48:02 29.400- 29.500
JAS-2 02 Oct 05:34:14 05:40:13 25° 335° (NNW) 05:46:12 435.910
Gurwin Techsat 1B 02 Oct 05:36:07 05:41:05 41° 306° (NW) 05:46:02 435.225
DANDE 02 Oct 05:36:32 05:44:39 53° 56° (NE) 05:52:37 436.750
Oscar 19 02 Oct 05:39:31 05:43:49 27° 314° (NW) 05:48:06 437.125/150
BEESAT 2 02 Oct 05:41:07 05:45:06 60° 359° (N) 05:49:06 435.950
Cosmos 2504 02 Oct 05:45:05 05:52:17 74° 290° (WNW) 05:59:34 435.465 / 435.565
AIST 1 02 Oct 05:55:28 05:59:47 61° 99° (E) 06:04:06
YUBILEINY 02 Oct 05:59:24 06:07:43 45° 307° (NW) 06:16:03 435.215
Cubesat XI-IV 02 Oct 06:01:57 06:02:20 10° 73° (ENE) 06:02:44 437.490
HORYU 2 02 Oct 06:06:07 06:09:45 24° 90° (E) 06:13:24 437.375
BEESAT 3 02 Oct 06:13:23 06:17:22 68° 13° (NNE) 06:21:21 437.485
BRITE-PL 02 Oct 06:30:50 06:35:04 28° 89° (E) 06:39:02 437.365/2234.400
STRAND 1 02 Oct 06:32:15 06:37:06 44° 56° (ENE) 06:41:59 437.568
GONETS M04 02 Oct 06:34:27 06:39:03 16° 57° (ENE) 06:43:38
ITAMSAT 1 02 Oct 06:42:56 06:47:44 38° 307° (NW) 06:52:32 435.822/435.867
CUSAT 1 02 Oct 06:45:28 06:53:14 60° 264° (W) 06:59:55 437.405
O/OREOS (USA 219) 02 Oct 06:48:43 06:51:36 17° 102° (ESE) 06:54:30 437.305
CUBESAT XI-V 02 Oct 06:49:18 06:53:21 27° 270° (W) 06:57:25 437.345
PCSat 02 Oct 06:52:34 06:58:01 85° 328° (NNW) 07:03:31 145.827
Cosmos 2499 02 Oct 06:54:20 06:56:50 12° 59° (ENE) 06:59:22 435.465 / 435.565
NOAA 15 02 Oct 07:05:22 07:09:55 28° 90° (E) 07:14:26 137.62
STARS 02 Oct 07:06:57 07:08:18 11° 281° (W) 07:09:39 437.465
AIST 2 02 Oct 07:07:06 07:11:16 69° 346° (NNW) 07:15:29 435.215
RS-15 02 Oct 07:13:40 07:22:26 24° 262° (W) 07:31:10 29.354- 29.394
HO-68 02 Oct 07:16:24 07:18:38 11° 68° (ENE) 07:20:52 435.675
Gurwin Techsat 1B 02 Oct 07:16:35 07:19:56 17° 329° (NNW) 07:23:17 435.225
JAS-2 02 Oct 07:17:54 07:23:00 20° 360° (N) 07:28:12 435.910
BEESAT 2 02 Oct 07:19:09 07:23:12 83° 20° (NNE) 07:27:15 435.950
Oscar 19 02 Oct 07:19:28 07:21:43 13° 338° (NNW) 07:23:58 437.125/150
DANDE 02 Oct 07:19:38 07:27:56 70° 260° (W) 07:35:56 436.750
NOAA 18 02 Oct 07:19:57 07:24:29 25° 89° (E) 07:29:00 137.9125
AO-7 02 Oct 07:24:47 07:32:58 64° 309° (NW) 07:41:07 29.400- 29.500
DOVE 4 02 Oct 07:30:15 07:33:27 20° 87° (E) 07:36:35 437.250
GOMX 1 02 Oct 07:33:20 07:37:34 38° 96° (E) 07:41:34 467.674
AIST 1 02 Oct 07:33:50 07:37:44 30° 302° (WNW) 07:41:37
LilacSat-2 02 Oct 07:34:23 07:37:55 33° 96° (E) 07:41:26 437.200
CUTE-I 02 Oct 07:37:34 07:42:34 38° 96° (E) 07:47:33 437.470
PRISM 02 Oct 07:38:00 07:41:23 24° 50° (NE) 07:44:46 437.425
Cubesat XI-IV 02 Oct 07:39:01 07:44:02 38° 96° (E) 07:49:02 437.490
Cosmos 2504 02 Oct 07:40:56 07:47:03 29° 317° (NW) 07:53:15 435.465 / 435.565
HORYU 2 02 Oct 07:42:21 07:46:50 80° 293° (WNW) 07:51:19 437.375
BEESAT 3 02 Oct 07:51:08 07:55:04 57° 216° (SW) 07:58:58 437.485
UNISAT 6 02 Oct 07:59:51 08:01:48 13° 35° (NE) 08:03:46 437.425
YUBILEINY 02 Oct 08:00:32 08:07:19 24° 338° (NNW) 08:14:05 435.215
CINEMA 3 02 Oct 08:06:39 08:09:09 15° 84° (E) 08:11:41 145.822/145.860
BRITE-PL 02 Oct 08:09:08 08:14:06 71° 293° (WNW) 08:18:40 437.365/2234.400
STRAND 1 02 Oct 08:11:16 08:16:17 54° 258° (WSW) 08:21:21 437.568
ITAMSAT 1 02 Oct 08:22:56 08:26:04 16° 330° (NNW) 08:29:12 435.822/435.867
GONETS M04 02 Oct 08:25:21 08:33:28 43° 83° (E) 08:41:35
O/OREOS (USA 219) 02 Oct 08:25:41 08:30:14 64° 124° (ESE) 08:34:49 437.305
SEEDS 02 Oct 08:27:36 08:29:58 14° 82° (E) 08:32:18 437.485
CUSAT 1 02 Oct 08:28:15 08:33:46 22° 288° (WNW) 08:38:50 437.405
ANTELSAT 02 Oct 08:33:39 08:36:35 18° 44° (NE) 08:39:32 437.575/2403.000
CUTE 1.7 + AOD 2 02 Oct 08:34:52 08:38:06 20° 87° (E) 08:41:19 437.475
PCSat 02 Oct 08:36:33 08:41:54 54° 352° (N) 08:47:16 145.827
AAUSAT CUBESAT 2 02 Oct 08:36:47 08:37:47 11° 78° (ENE) 08:38:48 437.432
CANX-2 02 Oct 08:37:02 08:40:29 23° 89° (E) 08:43:56 2200.000
CUBEBUG 2 02 Oct 08:41:25 08:43:07 12° 80° (E) 08:44:50 437.445
Cosmos 2499 02 Oct 08:41:25 08:47:49 39° 85° (E) 08:54:24 435.465 / 435.565
NOAA 15 02 Oct 08:44:58 08:50:20 83° 291° (WNW) 08:55:38 137.62
AIST 2 02 Oct 08:45:55 08:50:06 65° 10° (N) 08:54:18 435.215
UWE-3 02 Oct 08:49:43 08:50:33 10° 78° (ENE) 08:51:24 435.000/436.395/437.385
TIGRISAT 02 Oct 08:52:17 08:55:32 22° 47° (NE) 08:58:49 435.000
Gurwin Techsat 1B 02 Oct 08:56:54 08:58:04 11° 353° (N) 08:59:14 435.225
BEESAT 2 02 Oct 08:57:05 09:00:50 38° 224° (SW) 09:04:34 435.950
JAS-2 02 Oct 09:00:01 09:05:47 25° 25° (NNE) 09:11:46 435.910
NOAA 18 02 Oct 09:00:23 09:05:54 88° 112° (ESE) 09:11:24 137.9125
HO-68 02 Oct 09:02:07 09:08:44 38° 94° (E) 09:15:18 435.675
DANDE 02 Oct 09:02:56 09:09:37 28° 283° (WNW) 09:16:09 436.750
DOVE 4 02 Oct 09:07:31 09:11:48 84° 289° (WNW) 09:15:58 437.250
ZACube-1 02 Oct 09:07:46 09:08:37 10° 78° (ENE) 09:09:29 437.345
QB50P2 02 Oct 09:08:37 09:09:57 11° 33° (NNE) 09:11:19 145.880/145.840
LilacSat-2 02 Oct 09:08:39 09:12:21 45° 297° (WNW) 09:16:03 437.200
POLYITAN 1 02 Oct 09:10:47 09:12:07 11° 33° (NNE) 09:13:26 437.675
GOMX 1 02 Oct 09:11:29 09:15:51 47° 299° (WNW) 09:19:58 467.674
PRISM 02 Oct 09:12:06 09:16:18 86° 252° (WSW) 09:20:31 437.425
AIST 1 02 Oct 09:16:00 09:16:48 10° 326° (NW) 09:17:36
AO-7 02 Oct 09:17:28 09:24:40 35° 335° (NNW) 09:31:52 29.400- 29.500
CUTE-I 02 Oct 09:17:39 09:22:57 63° 298° (WNW) 09:28:15 437.470
Cubesat XI-IV 02 Oct 09:19:08 09:24:26 62° 298° (WNW) 09:29:44 437.490
HORYU 2 02 Oct 09:19:25 09:22:54 23° 313° (NW) 09:26:24 437.375
COMPASS 1 02 Oct 09:24:23 09:28:01 27° 91° (E) 09:31:38 437.405
BEESAT 3 02 Oct 09:29:23 09:32:04 18° 237° (WSW) 09:34:46 437.485
UNISAT 6 02 Oct 09:33:35 09:37:32 37° 58° (ENE) 09:41:32 437.425
Cosmos 2504 02 Oct 09:39:00 09:43:24 17° 348° (NNW) 09:47:54 435.465 / 435.565
DUCHIFAT 1 02 Oct 09:40:09 09:42:24 14° 39° (NE) 09:44:38 145.980
CINEMA 3 02 Oct 09:42:56 09:47:06 72° 105° (ESE) 09:51:21 145.822/145.860
QB50P1 02 Oct 09:47:23 09:50:02 16° 42° (NE) 09:52:41 145.935-145.965
BRITE-PL 02 Oct 09:48:04 09:51:54 22° 316° (NW) 09:55:31 437.365/2234.400
STRAND 1 02 Oct 09:53:58 09:56:41 14° 281° (W) 09:59:26 437.568
FUNcube-1 02 Oct 09:57:11 10:00:35 22° 89° (E) 10:04:02 145.935
POPSAT HIP 1 02 Oct 10:00:58 10:03:56 19° 45° (NE) 10:06:54 437.405
YUBILEINY 02 Oct 10:01:42 10:08:03 21° 11° (N) 10:14:21 435.215
SEEDS 02 Oct 10:02:15 10:06:32 64° 103° (ESE) 10:10:47 437.485
ITAMSAT 1 02 Oct 10:02:51 10:03:44 10° 354° (N) 10:04:37 435.822/435.867
O/OREOS (USA 219) 02 Oct 10:05:29 10:09:54 44° 327° (NNW) 10:14:21 437.305
ANTELSAT 02 Oct 10:08:25 10:12:38 62° 66° (ENE) 10:16:55 437.575/2403.000
CUTE 1.7 + AOD 2 02 Oct 10:10:12 10:14:34 90° 204° (SSW) 10:18:53 437.475
AAUSAT CUBESAT 2 02 Oct 10:10:14 10:14:20 48° 100° (E) 10:18:25 437.432
CANX-2 02 Oct 10:12:32 10:16:52 80° 290° (WNW) 10:21:12 2200.000
NANOSAT C BR1 02 Oct 10:13:23 10:16:34 21° 48° (NE) 10:19:45 145.865
CUBEBUG 2 02 Oct 10:16:32 10:20:44 53° 101° (ESE) 10:25:02 437.445
HUMSAT D 02 Oct 10:19:27 10:20:55 11° 79° (E) 10:22:23 437.325/437.525
PCSat 02 Oct 10:20:34 10:25:59 61° 17° (NNE) 10:31:23 145.827
GONETS M04 02 Oct 10:20:57 10:29:51 77° 290° (WNW) 10:38:47
UWE-3 02 Oct 10:23:57 10:28:07 46° 99° (E) 10:32:22 435.000/436.395/437.385
AIST 2 02 Oct 10:24:32 10:28:42 68° 213° (SSW) 10:32:53 435.215
NOAA 15 02 Oct 10:25:07 10:29:35 28° 315° (NW) 10:34:02 137.62
TIGRISAT 02 Oct 10:27:28 10:31:43 80° 70° (ENE) 10:36:03 435.000
Oscar 11 02 Oct 10:30:15 10:34:20 37° 96° (E) 10:38:24 145.826/435.025
Cosmos 2499 02 Oct 10:33:33 10:40:36 71° 291° (WNW) 10:47:54 435.465 / 435.565
Oscar 19 02 Oct 10:33:51 10:36:33 14° 26° (NNE) 10:39:14 437.125/150
Gurwin Techsat 1B 02 Oct 10:33:56 10:36:02 12° 18° (NNE) 10:38:08 435.225
BEESAT 2 02 Oct 10:36:54 10:37:41 10° 245° (WSW) 10:38:28 435.950
QB50P2 02 Oct 10:40:58 10:44:42 32° 56° (NE) 10:48:28 145.880/145.840
NOAA 18 02 Oct 10:41:23 10:46:10 32° 314° (NW) 10:50:55 137.9125
ZACube-1 02 Oct 10:41:50 10:46:01 45° 99° (E) 10:50:16 437.345
JAS-2 02 Oct 10:42:24 10:49:16 46° 49° (NE) 10:56:36 435.910
POLYITAN 1 02 Oct 10:43:07 10:46:52 32° 55° (NE) 10:50:37 437.675
LilacSat-2 02 Oct 10:44:04 10:45:53 13° 318° (NW) 10:47:42 437.200
DOVE 4 02 Oct 10:45:46 10:49:03 22° 312° (NW) 10:52:15 437.250
DELFI C3 02 Oct 10:47:16 10:50:42 26° 92° (E) 10:54:06 145.870
PRISM 02 Oct 10:49:15 10:52:14 19° 272° (W) 10:55:15 437.425
HO-68 02 Oct 10:49:58 10:57:10 80° 296° (WNW) 11:04:19 435.675
GOMX 1 02 Oct 10:50:22 10:53:02 16° 322° (NW) 10:55:38 467.674
BUGSAT 1 02 Oct 10:55:43 10:58:49 21° 49° (NE) 11:01:55 437.445
CUTE-I 02 Oct 10:58:08 11:02:15 23° 320° (NW) 11:06:22 437.470
Cubesat XI-IV 02 Oct 10:59:39 11:03:45 23° 320° (NW) 11:07:51 437.490
COMPASS 1 02 Oct 10:59:44 11:03:57 65° 293° (WNW) 11:08:09 437.405
AO-7 02 Oct 11:08:56 11:15:34 28° 1° (N) 11:22:12 29.400- 29.500
UNISAT 6 02 Oct 11:10:05 11:14:13 49° 259° (W) 11:18:27 437.425
DUCHIFAT 1 02 Oct 11:13:16 11:17:15 44° 61° (ENE) 11:21:14 145.980
CINEMA 3 02 Oct 11:20:30 11:24:01 27° 306° (NW) 11:27:34 145.822/145.860
QB50P1 02 Oct 11:20:59 11:25:06 55° 64° (ENE) 11:29:13 145.935-145.965
BRITE-PL 02 Oct 11:27:50 11:28:48 11° 340° (NNW) 11:29:46 437.365/2234.400
FUNcube-1 02 Oct 11:33:02 11:37:22 84° 290° (WNW) 11:41:47 145.935
POPSAT HIP 1 02 Oct 11:34:57 11:39:07 68° 68° (ENE) 11:43:19 437.405
Cosmos 2504 02 Oct 11:35:29 11:40:22 18° 21° (NNE) 11:45:21 435.465 / 435.565
SEEDS 02 Oct 11:38:16 11:42:03 31° 305° (NW) 11:45:47 437.485
ITAMSAT 1 02 Oct 11:39:09 11:41:15 13° 19° (NNE) 11:43:23 435.822/435.867
AAUSAT CUBESAT 2 02 Oct 11:45:53 11:49:47 37° 301° (WNW) 11:53:41 437.432
ANTELSAT 02 Oct 11:45:59 11:49:43 29° 267° (W) 11:53:29 437.575/2403.000
O/OREOS (USA 219) 02 Oct 11:46:26 11:50:21 26° 352° (N) 11:54:17 437.305
CUTE 1.7 + AOD 2 02 Oct 11:46:31 11:49:59 24° 310° (NW) 11:53:25 437.475
NANOSAT C BR1 02 Oct 11:47:37 11:51:49 81° 69° (ENE) 11:56:02 145.865
CANX-2 02 Oct 11:48:55 11:52:14 22° 311° (NW) 11:55:32 2200.000
CUBEBUG 1 02 Oct 11:50:05 11:51:14 11° 78° (ENE) 11:52:22 437.445
HUMSAT D 02 Oct 11:53:23 11:57:33 50° 100° (E) 12:01:45 437.325/437.525
CUBEBUG 2 02 Oct 11:53:25 11:57:18 35° 302° (WNW) 12:01:17 437.445
VELOX 1 02 Oct 11:59:31 12:00:27 11° 78° (ENE) 12:01:21 145.980
YUBILEINY 02 Oct 12:00:24 12:08:12 34° 42° (NE) 12:15:57 435.215
UWE-3 02 Oct 12:00:36 12:04:37 40° 300° (WNW) 12:08:44 435.000/436.395/437.385
AIST 2 02 Oct 12:03:22 12:06:39 22° 234° (SW) 12:09:56 435.215
PCSat 02 Oct 12:04:11 12:09:37 70° 222° (SW) 12:15:01 145.827
NOAA 15 02 Oct 12:05:23 12:07:57 14° 339° (NNW) 12:10:31 137.62
TIGRISAT 02 Oct 12:05:38 12:08:59 22° 271° (W) 12:12:23 435.000
Oscar 11 02 Oct 12:06:24 12:10:39 50° 297° (WNW) 12:14:53 145.826/435.025
Oscar 19 02 Oct 12:10:02 12:14:36 32° 50° (NE) 12:19:10 437.125/150
Gurwin Techsat 1B 02 Oct 12:10:15 12:14:25 24° 41° (NE) 12:18:36 435.225
QB50P2 02 Oct 12:16:12 12:20:22 59° 257° (WSW) 12:24:33 145.880/145.840
ZACube-1 02 Oct 12:18:17 12:22:20 41° 300° (WNW) 12:26:28 437.345
POLYITAN 1 02 Oct 12:18:21 12:22:31 59° 257° (WSW) 12:26:41 437.675
50 SAT 02 Oct 12:20:08 12:21:35 12° 83° (E) 12:23:01 437.505
GONETS M04 02 Oct 12:20:18 12:28:15 35° 317° (NW) 12:36:12
ESTCUBE 1 02 Oct 12:20:20 12:24:05 25° 90° (E) 12:27:49 437.505/2401.250
Cosmos 2491 02 Oct 12:21:01 12:23:49 12° 50° (NE) 12:26:37 435.465 / 435.565
DELFI C3 02 Oct 12:21:52 12:25:54 64° 292° (WNW) 12:29:53 145.870
NOAA 18 02 Oct 12:22:24 12:25:28 15° 338° (NNW) 12:28:33 137.9125
JAS-2 02 Oct 12:26:45 12:33:56 77° 254° (WSW) 12:41:49 435.910
Cosmos 2499 02 Oct 12:29:10 12:35:10 28° 319° (NW) 12:41:22 435.465 / 435.565
BUGSAT 1 02 Oct 12:29:43 12:33:47 86° 70° (ENE) 12:37:50 437.445
UKube-1 02 Oct 12:31:32 12:32:20 10° 79° (ENE) 12:33:07 .
COMPASS 1 02 Oct 12:35:57 12:38:53 19° 314° (NW) 12:41:49 437.405
HO-68 02 Oct 12:37:54 12:44:14 35° 322° (NW) 12:50:33 435.675
CUTE-I 02 Oct 12:38:39 12:40:42 12° 344° (NNW) 12:42:47 437.470
Cubesat XI-IV 02 Oct 12:40:10 12:42:14 12° 344° (NNW) 12:44:17 437.490
DUCHIFAT 1 02 Oct 12:49:07 12:53:03 39° 262° (W) 12:57:01 145.980
UNISAT 6 02 Oct 12:50:46 12:52:04 11° 282° (WNW) 12:53:21 437.425
AISAT 02 Oct 12:50:54 12:54:33 24° 91° (E) 12:58:09 437.250
QB50P1 02 Oct 12:57:21 13:01:08 32° 265° (W) 13:04:56 145.935-145.965
AO-7 02 Oct 12:59:11 13:06:30 36° 28° (NNE) 13:13:48 29.400- 29.500
DX 1 02 Oct 13:08:22 13:11:51 23° 90° (E) 13:15:18 434.975-435.025
FUNcube-1 02 Oct 13:09:49 13:13:10 23° 311° (NW) 13:16:35 145.935
POPSAT HIP 1 02 Oct 13:11:46 13:15:19 26° 268° (W) 13:18:52 437.405
ITAMSAT 1 02 Oct 13:15:05 13:19:14 25° 43° (NE) 13:23:25 435.822/435.867
SEEDS 02 Oct 13:15:25 13:16:38 11° 327° (NNW) 13:17:50 437.485
AUBIESAT-1 02 Oct 13:20:44 13:20:53 10° 92° (E) 13:21:03 437.475
AAUSAT CUBESAT 2 02 Oct 13:22:29 13:24:18 13° 323° (NW) 13:26:08 437.432
CUBEBUG 1 02 Oct 13:24:24 13:28:38 47° 100° (E) 13:32:50 437.445
NANOSAT C BR1 02 Oct 13:24:47 13:28:05 22° 271° (W) 13:31:22 145.865
O/OREOS (USA 219) 02 Oct 13:26:56 13:31:01 29° 17° (NNE) 13:35:04 437.305
HUMSAT D 02 Oct 13:29:13 13:33:08 37° 301° (WNW) 13:37:04 437.325/437.525
Cosmos 2504 02 Oct 13:29:41 13:36:21 36° 50° (NE) 13:43:20 435.465 / 435.565
CUBEBUG 2 02 Oct 13:31:17 13:32:57 12° 324° (NW) 13:34:40 437.445
VELOX 1 02 Oct 13:33:48 13:38:05 45° 100° (E) 13:42:19 145.980
UWE-3 02 Oct 13:38:05 13:40:11 14° 322° (NW) 13:42:18 435.000/436.395/437.385
SPROUT 02 Oct 13:40:35 13:44:32 36° 96° (E) 13:48:29 437.525
Oscar 11 02 Oct 13:43:19 13:45:59 16° 319° (NW) 13:48:38 145.826/435.025
NOAA 15 02 Oct 13:44:35 13:45:48 11° 3° (N) 13:47:00 137.62
PCSat 02 Oct 13:48:01 13:52:18 24° 244° (WSW) 13:56:35 145.827
Oscar 19 02 Oct 13:48:22 13:53:36 81° 252° (WSW) 13:58:50 437.125/150
Gurwin Techsat 1B 02 Oct 13:48:24 13:53:40 67° 64° (ENE) 13:58:59 435.225
50 SAT 02 Oct 13:52:11 13:55:51 62° 104° (ESE) 13:59:30 437.505
QB50P2 02 Oct 13:55:03 13:57:05 13° 278° (W) 13:59:09 145.880/145.840
ZACube-1 02 Oct 13:55:34 13:57:44 14° 322° (NW) 13:59:54 437.345
ESTCUBE 1 02 Oct 13:56:51 14:01:26 79° 291° (WNW) 14:05:59 437.505/2401.250
POLYITAN 1 02 Oct 13:57:14 13:59:14 13° 278° (W) 14:01:15 437.675
DELFI C3 02 Oct 13:57:25 14:00:06 17° 314° (NW) 14:02:47 145.870
M-CUBED/EXP-1 PRIME 02 Oct 14:00:44 14:03:31 24° 103° (ESE) 14:06:17 437.505
NOAA 18 02 Oct 14:02:17 14:04:15 12° 2° (N) 14:06:12 137.9125
